Date,TemperatureHighF,TemperatureAvgF,TemperatureLowF,DewpointHighF,DewpointAvgF,DewpointLowF,HumidityHigh,HumidityAvg,HumidityLow,PressureMaxIn,PressureMinIn,WindSpeedMaxMPH,WindSpeedAvgMPH,GustSpeedMaxMPH,PrecipitationSumIn
2013-9-1,94.8,80.6,72.1,80.3,75.7,71.8,99,87,56,30.04,29.93,11,2,17,0.00
2013-9-2,93.4,79.8,72.1,81.4,76.2,71.8,99,90,60,30.06,29.97,10,2,17,0.00
2013-9-3,92.3,81.0,73.0,82.4,77.0,72.7,99,89,62,30.07,29.97,9,2,14,0.00
2013-9-4,95.2,80.0,72.1,81.4,76.1,71.8,99,90,58,30.13,30.02,16,1,24,0.20
2013-9-5,97.3,80.8,72.1,83.0,75.7,69.8,99,87,53,30.14,30.03,14,2,24,0.09
2013-9-6,94.5,78.5,71.6,83.6,74.9,71.3,99,91,55,30.10,29.97,15,2,32,0.18
2013-9-7,93.6,78.4,70.5,80.4,74.4,70.2,99,90,56,30.07,29.96,11,2,15,0.00
2013-9-8,94.6,81.1,71.4,81.5,74.3,71.1,99,83,51,30.03,29.91,9,2,16,0.00
2013-9-9,95.4,81.6,71.8,79.8,73.9,66.9,99,81,45,30.08,29.98,8,2,14,0.00
2013-9-10,91.8,81.6,73.9,79.1,74.2,66.5,99,81,49,30.14,30.03,10,2,16,0.00
2013-9-11,93.0,82.2,73.6,79.9,73.8,69.7,99,79,50,30.12,30.03,11,3,17,0.00
2013-9-12,93.0,78.5,72.3,81.2,75.4,72.0,99,92,60,30.07,29.94,11,1,19,0.47
2013-9-13,94.3,79.9,70.7,79.8,74.6,70.4,99,86,55,29.96,29.84,12,1,19,0.00
2013-9-14,95.5,82.8,73.0,80.3,76.1,72.7,99,83,52,30.03,29.88,10,1,16,0.00
2013-9-15,92.5,78.5,72.9,82.5,76.1,72.6,99,93,65,30.12,30.01,19,2,36,0.04
2013-9-16,92.7,78.9,71.4,81.4,75.4,71.1,99,91,56,30.12,30.02,14,2,24,0.01
2013-9-17,91.0,79.0,71.4,81.2,75.6,71.1,99,90,63,30.11,29.99,12,2,19,0.04
2013-9-18,88.2,78.9,72.9,80.7,76.2,72.6,99,92,73,30.09,30.01,11,3,20,0.01
2013-9-19,92.3,80.2,72.3,80.7,74.8,71.4,99,86,57,30.09,30.00,11,3,17,0.00
2013-9-20,90.9,79.4,69.3,76.4,71.6,68.9,99,80,53,30.08,29.94,8,2,14,0.00
2013-9-21,91.6,79.3,68.4,78.7,72.4,68.1,99,82,53,30.00,29.81,8,1,11,0.00
2013-9-22,90.0,78.6,73.8,79.7,76.7,73.1,99,95,68,29.91,29.81,16,2,24,0.94
2013-9-23,86.4,76.4,73.4,82.1,75.7,73.1,99,98,82,30.01,29.88,11,2,17,2.04
2013-9-24,85.1,77.2,74.3,80.3,76.3,74.0,99,97,80,30.01,29.89,12,3,18,0.15
2013-9-25,81.7,75.9,72.5,78.5,74.9,72.2,99,97,84,29.92,29.83,16,4,21,0.18
2013-9-26,90.9,80.9,73.8,83.0,75.1,64.0,99,86,46,29.92,29.83,14,4,21,0.14
2013-9-27,86.4,76.2,69.8,77.4,73.0,69.5,99,91,67,30.01,29.91,11,3,17,0.00
2013-9-28,88.3,76.4,70.3,80.6,73.8,70.0,99,92,70,30.05,29.96,8,2,15,0.14
2013-9-29,91.9,78.0,68.9,77.4,71.7,68.6,99,84,52,30.04,29.94,7,2,12,0.00
2013-9-30,91.2,78.3,68.2,78.0,72.3,67.9,99,84,54,30.06,29.96,7,1,14,0.00